User: anonymous   Login
Location: �clusier
(49.9361°N, 2.7869°E)
Time: 04:35:54
(UTC+00:00)
Language:

Cosmos 1331 Rocket - Orbit

View from above orbital plane
View from above orbital plane
View from above satellite
View from above satellite

Ground track
Ground track

The orbit data is extracted from the following two-line orbital elements,

1 13028U 82001B   21263.37448858  .00000077  00000-0  33600-4 0  9996
2 13028  74.0423  41.6902 0018729  98.4310 261.8968 14.38445430 80611
Epoch (UTC): 20 September 2021 08:59:15
Eccentricity: 0.0018729
inclination: 74.0423°
perigee height: 750 km
apogee height: 777 km
right ascension of ascending node: 41.6902°
argument of perigee: 98.4310°
revolutions per day: 14.38445430
mean anomaly at epoch: 261.8968°
orbit number at epoch: 8061

The dashed part of the orbit path shows where the satellite is in the earth's shadow,  

DLR